Wausau, WI

6:28 PM CST on November 11, 2019 (GMT -0600)
Wausau Downtown

Weather History for KAUW - October, 2019

Change the Weather History Date:

Monday, October 21, 2019

  Actual Average Record
Temperature  
Mean Temperature 50 °F 44 °F  
Max Temperature 58 °F 53 °F 80 °F (1953)
Min Temperature 42 °F 35 °F 18 °F (1960)
Degree Days  
Heating Degree Days 15 21  
Month to date heating degree days 359 361  
Since 1 July heating degree days 538 654  
Cooling Degree Days 0 0  
Month to date cooling degree days 0 0  
Year to date cooling degree days 363 405  
Moisture  
Dew Point 47 °F    
Average Humidity 88    
Maximum Humidity 97    
Minimum Humidity 62    
Precipitation  
Precipitation 0.48 in 0.08 in 1.71 in (1943)
Month to date precipitation 3.36 2.16  
Year to date precipitation 42.17 28.27  
Snow  
Snow 0.00 in 0.00 in 7.80 in (2002)
Month to date snowfall T 0.7  
Since 1 July snowfall T 0.7  
Snow Depth 0.00 in    
Sea Level Pressure  
Sea Level Pressure 29.43 in    
Wind  
Wind Speed 13 mph ()    
Max Wind Speed 25 mph    
Max Gust Speed 41 mph    
Visibility 7.0 miles    
Events Rain    
T = Trace of Precipitation, MM = Missing Value Source: Averaged Metar Reports

Daily Weather History Graph

Daily Weather History Graph

Search for Another Location

Airport or City:

Astronomy

Oct. 21, 2019 Rise Set
Actual Time 7:21 AM CDT 6:03 PM CDT
Civil Twilight 6:51 AM CDT 6:33 PM CDT
Nautical Twilight 6:17 AM CDT 7:07 PM CDT
Astronomical Twilight 5:43 AM CDT 7:41 PM CDT
Moon No Moon Rise 2:48 PM CDT (10/21)
Length of Visible Light 11h 41m
Length of Day
10h 42m
Waning Gibbous, 48% of the Moon is Illuminated
Oct 21
Waning Gibbous
Oct 27
New
Nov 4
First Quarter
Nov 12
Full
Nov 19
Last Quarter

Hourly Weather History & Observations

Time (CDT) Temp. Windchill Dew Point Humidity Pressure Visibility Wind Dir Wind Speed Gust Speed Precip Events Conditions
12:54 AM 44.1 °F 41.5 °F 39.0 °F 82% 29.91 in 10.0 mi ESE 4.6 mph - N/A   Clear
1:54 AM 43.0 °F 38.2 °F 39.9 °F 89% 29.86 in 10.0 mi East 8.1 mph - N/A   Clear
2:54 AM 45.0 °F 39.7 °F 39.9 °F 82% 29.83 in 10.0 mi East 10.4 mph - N/A   Clear
3:54 AM 45.0 °F 39.7 °F 39.0 °F 80% 29.81 in 10.0 mi East 10.4 mph - N/A   Clear
4:54 AM 46.0 °F 40.6 °F 39.9 °F 79% 29.76 in 10.0 mi East 11.5 mph - N/A   Mostly Cloudy
5:54 AM 46.9 °F - 42.1 °F 83% 29.73 in 10.0 mi East 15.0 mph 23.0 mph N/A   Mostly Cloudy
6:54 AM 48.0 °F - 44.1 °F 86% 29.68 in 10.0 mi East 19.6 mph 27.6 mph N/A   Mostly Cloudy
7:54 AM 48.9 °F - 46.0 °F 90% 29.62 in 10.0 mi East 17.3 mph 28.8 mph N/A   Mostly Cloudy
8:54 AM 51.1 °F - 46.9 °F 86% 29.58 in 10.0 mi East 23.0 mph 34.5 mph N/A   Overcast
9:39 AM 51.1 °F - 46.9 °F 86% 29.49 in 9.0 mi East 25.3 mph 41.4 mph N/A   Overcast
9:54 AM 51.1 °F - 46.0 °F 83% 29.50 in 9.0 mi ESE 23.0 mph 38.0 mph N/A   Mostly Cloudy
10:49 AM 50.0 °F - 48.2 °F 94% 29.45 in 2.5 mi East 17.3 mph 32.2 mph 0.04 in Rain Rain
10:54 AM 50.0 °F - 48.0 °F 93% 29.47 in 3.0 mi East 17.3 mph 32.2 mph 0.05 in Rain Rain
11:05 AM 50.0 °F - 48.0 °F 93% 29.44 in 2.5 mi East 15.0 mph 31.1 mph 0.05 in Rain Rain
11:17 AM 50.0 °F - 48.0 °F 93% 29.42 in 3.0 mi East 13.8 mph 28.8 mph 0.10 in Rain Rain
11:28 AM 48.9 °F - 48.0 °F 97% 29.39 in 2.0 mi East 15.0 mph 28.8 mph 0.14 in Rain Rain
11:39 AM 50.0 °F - 48.0 °F 93% 29.38 in 4.0 mi East 19.6 mph 29.9 mph 0.15 in Rain Light Rain
11:43 AM 50.0 °F - 48.0 °F 93% 29.37 in 2.5 mi East 18.4 mph 29.9 mph 0.17 in Rain Heavy Rain
11:54 AM 50.0 °F - 48.0 °F 93% 29.38 in 3.0 mi East 20.7 mph 35.7 mph 0.18 in Rain Light Rain
12:24 PM 50.0 °F - 48.9 °F 96% 29.31 in 2.5 mi East 18.4 mph 35.7 mph 0.05 in Rain Heavy Rain
12:54 PM 50.0 °F - 48.9 °F 96% 29.30 in 2.0 mi East 18.4 mph 34.5 mph 0.17 in Rain Heavy Rain
12:59 PM 50.0 °F - 48.9 °F 96% 29.26 in 1.8 mi East 23.0 mph 33.4 mph 0.02 in Rain Heavy Rain
1:15 PM 50.0 °F - 48.9 °F 96% 29.25 in 2.0 mi East 21.9 mph 40.3 mph 0.04 in Rain Light Rain
1:37 PM 50.0 °F - 48.9 °F 96% 29.24 in 2.0 mi SE 15.0 mph 34.5 mph 0.06 in Rain Light Rain
1:54 PM 51.1 °F - 50.0 °F 96% 29.24 in 4.0 mi East 21.9 mph 31.1 mph 0.08 in Rain Light Rain
2:06 PM 51.1 °F - 50.0 °F 96% 29.22 in 9.0 mi SE 11.5 mph 25.3 mph 0.00 in Rain Light Rain
2:22 PM 52.0 °F - 51.1 °F 97% 29.22 in 10.0 mi SSE 13.8 mph 28.8 mph 0.00 in   Overcast
2:24 PM 52.0 °F - 51.1 °F 97% 29.22 in 10.0 mi SSE 10.4 mph 23.0 mph 0.00 in   Overcast
2:54 PM 54.0 °F - 53.1 °F 97% 29.23 in 10.0 mi SE 13.8 mph 26.5 mph 0.00 in   Overcast
3:54 PM 57.0 °F - 54.0 °F 89% 29.23 in 10.0 mi South 12.7 mph - N/A   Mostly Cloudy
4:36 PM 57.9 °F - 52.0 °F 81% 29.22 in 10.0 mi South 10.4 mph 21.9 mph N/A   Mostly Cloudy
4:46 PM 57.9 °F - 52.0 °F 81% 29.22 in 10.0 mi South 12.7 mph - N/A   Mostly Cloudy
4:54 PM 57.9 °F - 52.0 °F 81% 29.24 in 10.0 mi South 10.4 mph 19.6 mph N/A   Scattered Clouds
5:54 PM 57.0 °F - 46.0 °F 67% 29.25 in 10.0 mi South 17.3 mph 24.2 mph N/A   Scattered Clouds
6:54 PM 54.0 °F - 41.0 °F 62% 29.28 in 10.0 mi SSW 18.4 mph 31.1 mph N/A   Partly Cloudy
7:54 PM 51.1 °F - 39.9 °F 66% 29.31 in 10.0 mi South 9.2 mph 21.9 mph N/A   Partly Cloudy